SDM6593 ULLI-UWKD

Flight info

Callsign SDM6593
Flight time N/A
Altitude 35000
Route SUGIN1D/10L SUGI1B SUGIN T873 VUZPU T490 EZMUB T439 USTOK L94 NAMER L94 UNORO T788 KOROM KORO1T
Aircraft A319/M-SDFGHIRWY/S

Departure

Time 2026-05-07 19:25
Airport Pulkovo Airport (ULLI)

Arrival

Time N/A
Airport Kazan International Airport (UWKD)
Time Latitude Longitude Altitude Speed Heading
2026-05-07 19:05 59.80205 30.27328 86 ft 0 kts 196°
2026-05-07 19:16 59.80217 30.27334 86 ft 2 kts 196°
2026-05-07 19:16 59.80231 30.27342 86 ft 2 kts 196°
2026-05-07 19:17 59.80244 30.27356 86 ft 2 kts 230°
2026-05-07 19:17 59.80251 30.27383 86 ft 2 kts 263°
2026-05-07 19:17 59.80251 30.27401 86 ft 1 kts 284°
2026-05-07 19:17 59.80249 30.27414 86 ft 0 kts 287°
2026-05-07 19:18 59.80249 30.27413 86 ft 0 kts 287°
2026-05-07 19:20 59.80254 30.27380 86 ft 5 kts 287°
2026-05-07 19:21 59.80266 30.27299 86 ft 7 kts 287°
2026-05-07 19:21 59.80298 30.27221 86 ft 7 kts
2026-05-07 19:21 59.80348 30.27184 86 ft 9 kts 294°
2026-05-07 19:21 59.80372 30.27041 86 ft 12 kts 287°
2026-05-07 19:22 59.80398 30.26866 86 ft 14 kts 286°
2026-05-07 19:22 59.80424 30.26685 86 ft 10 kts 285°
2026-05-07 19:22 59.80454 30.26572 86 ft 7 kts 330°
2026-05-07 19:22 59.80497 30.26577 86 ft 5 kts 18°
2026-05-07 19:23 59.80504 30.26582 86 ft 0 kts 18°
2026-05-07 19:23 59.80514 30.26588 86 ft 2 kts 18°
2026-05-07 19:23 59.80541 30.26604 86 ft 5 kts 17°
2026-05-07 19:24 59.80586 30.26630 86 ft 8 kts 14°
2026-05-07 19:24 59.80639 30.26664 86 ft 6 kts 22°
2026-05-07 19:24 59.80651 30.26714 86 ft 3 kts 106°
2026-05-07 19:24 59.80642 30.26773 86 ft 5 kts 106°
2026-05-07 19:25 59.80582 30.27174 87 ft 67 kts 105°
2026-05-07 19:25 59.80379 30.28542 87 ft 136 kts 105°
2026-05-07 19:25 59.80042 30.30681 232 ft 176 kts 105°
2026-05-07 19:25 59.79683 30.32954 978 ft 175 kts 102°
2026-05-07 19:26 59.79393 30.34985 1658 ft 174 kts 102°
2026-05-07 19:26 59.79062 30.37285 2334 ft 177 kts 103°
2026-05-07 19:26 59.78740 30.39479 2927 ft 180 kts 103°
2026-05-07 19:26 59.78418 30.41647 3481 ft 185 kts 104°
2026-05-07 19:27 59.78043 30.44170 3949 ft 200 kts 104°
2026-05-07 19:27 59.77630 30.46940 4412 ft 217 kts 105°
2026-05-07 19:27 59.77185 30.49903 4918 ft 236 kts 105°
2026-05-07 19:27 59.76697 30.53140 5462 ft 254 kts 105°
2026-05-07 19:28 59.76176 30.56587 6001 ft 272 kts 106°
2026-05-07 19:28 59.75632 30.60327 6580 ft 288 kts 105°
2026-05-07 19:28 59.75088 30.64173 7384 ft 294 kts 105°
2026-05-07 19:28 59.74536 30.68079 8244 ft 297 kts 107°
2026-05-07 19:29 59.73974 30.72037 9065 ft 301 kts 108°
2026-05-07 19:29 59.73403 30.76034 9867 ft 304 kts 108°
2026-05-07 19:29 59.72828 30.80038 10595 ft 310 kts 109°
2026-05-07 19:29 59.72218 30.84260 11021 ft 327 kts 109°
2026-05-07 19:30 59.71572 30.88697 11378 ft 345 kts 109°
2026-05-07 19:30 59.70891 30.93377 11712 ft 364 kts 109°
2026-05-07 19:30 59.70170 30.98317 12027 ft 382 kts 109°
2026-05-07 19:30 59.69414 31.03470 12324 ft 400 kts 108°
2026-05-07 19:31 59.68621 31.08864 12620 ft 417 kts 108°
2026-05-07 19:31 59.67795 31.14476 13114 ft 427 kts 107°
2026-05-07 19:31 59.66961 31.20139 13782 ft 431 kts 107°
2026-05-07 19:31 59.66131 31.25772 14433 ft 435 kts 107°
2026-05-07 19:32 59.65272 31.31591 15074 ft 439 kts 107°
2026-05-07 19:32 59.64421 31.37330 15682 ft 443 kts 107°
2026-05-07 19:32 59.63549 31.43183 16279 ft 447 kts 107°
2026-05-07 19:32 59.62667 31.49069 16859 ft 450 kts 107°
2026-05-07 19:33 59.61776 31.54998 17415 ft 454 kts 107°
2026-05-07 19:33 59.60868 31.61018 17959 ft 457 kts 107°
2026-05-07 19:33 59.59961 31.67006 18481 ft 461 kts 108°
2026-05-07 19:33 59.59037 31.73103 18991 ft 464 kts 108°
2026-05-07 19:34 59.58105 31.79232 19486 ft 467 kts 108°
2026-05-07 19:34 59.57168 31.85364 19962 ft 470 kts 108°
2026-05-07 19:34 59.56222 31.91527 20423 ft 473 kts 108°
2026-05-07 19:34 59.55266 31.97719 20870 ft 477 kts 108°
2026-05-07 19:35 59.54255 32.04000 21303 ft 479 kts 111°
2026-05-07 19:35 59.52857 32.09881 21902 ft 476 kts 121°
2026-05-07 19:35 59.51012 32.15176 22758 ft 466 kts 131°
2026-05-07 19:35 59.48867 32.19787 23397 ft 461 kts 136°
2026-05-07 19:36 59.46574 32.24275 23788 ft 464 kts 137°
2026-05-07 19:36 59.44272 32.28687 24139 ft 468 kts 137°
2026-05-07 19:36 59.41949 32.33138 24512 ft 470 kts 137°
2026-05-07 19:36 59.39608 32.37640 24884 ft 473 kts 137°
2026-05-07 19:37 59.37252 32.42182 25245 ft 476 kts 137°
2026-05-07 19:37 59.34898 32.46727 25594 ft 478 kts 137°
2026-05-07 19:37 59.32541 32.51279 25933 ft 481 kts 137°
2026-05-07 19:37 59.30151 32.55887 26266 ft 483 kts 137°
2026-05-07 19:38 59.27760 32.60491 26589 ft 485 kts 137°
2026-05-07 19:38 59.25355 32.65113 26895 ft 488 kts 138°
2026-05-07 19:38 59.22931 32.69773 27182 ft 490 kts 137°
2026-05-07 19:38 59.20510 32.74423 27452 ft 491 kts 137°
2026-05-07 19:39 59.18098 32.79041 27703 ft 493 kts 137°
2026-05-07 19:39 59.15642 32.83728 27944 ft 495 kts 137°
2026-05-07 19:39 59.13177 32.88419 28174 ft 497 kts 137°
2026-05-07 19:39 59.10696 32.93130 28471 ft 496 kts 138°
2026-05-07 19:40 59.08274 32.97722 29232 ft 485 kts 138°
2026-05-07 19:40 59.05925 33.02168 30206 ft 469 kts 138°
2026-05-07 19:40 59.03612 33.06531 30943 ft 460 kts 138°
2026-05-07 19:40 59.01343 33.10798 31321 ft 458 kts 139°
2026-05-07 19:41 58.99037 33.15117 31579 ft 460 kts 139°
2026-05-07 19:41 58.96731 33.19428 31845 ft 461 kts 139°
2026-05-07 19:41 58.94428 33.23729 32137 ft 461 kts 139°
2026-05-07 19:41 58.92142 33.27996 32440 ft 461 kts 139°
2026-05-07 19:42 58.89833 33.32306 32731 ft 461 kts 139°
2026-05-07 19:42 58.87521 33.36597 32999 ft 461 kts 139°
2026-05-07 19:42 58.85237 33.40816 33275 ft 461 kts 139°
2026-05-07 19:42 58.82935 33.45065 33676 ft 457 kts 139°
2026-05-07 19:43 58.80631 33.49313 34036 ft 455 kts 139°
2026-05-07 19:43 58.78359 33.53500 34212 ft 457 kts 139°
2026-05-07 19:43 58.76062 33.57722 34330 ft 460 kts 139°
2026-05-07 19:43 58.73740 33.61987 34537 ft 461 kts 139°
2026-05-07 19:44 58.71419 33.66243 34795 ft 460 kts 140°
2026-05-07 19:44 58.69127 33.70454 34921 ft 460 kts 140°
2026-05-07 19:44 58.64441 33.79033 34934 ft 471 kts 140°
2026-05-07 19:45 58.59682 33.87693 34936 ft 481 kts 140°
2026-05-07 19:45 58.54808 33.96524 34935 ft 482 kts 140°
2026-05-07 19:46 58.49961 34.05271 34935 ft 482 kts 140°
2026-05-07 19:46 58.45070 34.14060 34936 ft 482 kts 140°
2026-05-07 19:47 58.40197 34.22783 34936 ft 482 kts 140°
2026-05-07 19:47 58.35312 34.31492 34935 ft 483 kts 140°
2026-05-07 19:48 58.30413 34.40187 34932 ft 482 kts 140°
2026-05-07 19:48 58.25513 34.48852 34916 ft 482 kts 140°
2026-05-07 19:49 58.20585 34.57497 34881 ft 482 kts 141°
2026-05-07 19:49 58.15488 34.65665 34842 ft 481 kts 143°
2026-05-07 19:50 58.10886 34.74578 34815 ft 468 kts 128°
2026-05-07 19:50 58.09337 34.80074 34795 ft 478 kts 109°
2026-05-07 19:50 58.08834 34.86221 34801 ft 483 kts 88°
2026-05-07 19:51 58.09462 34.92470 34807 ft 481 kts 66°
2026-05-07 19:51 58.11037 34.97963 34821 ft 480 kts 54°
2026-05-07 19:51 58.14441 35.08833 34801 ft 479 kts 60°
2026-05-07 19:52 58.17070 35.20477 34781 ft 482 kts 67°
2026-05-07 19:52 58.19266 35.32434 34758 ft 483 kts 69°
2026-05-07 19:53 58.21336 35.44487 34730 ft 483 kts 69°
2026-05-07 19:53 58.23394 35.56663 34709 ft 482 kts 70°
2026-05-07 19:54 58.25424 35.68758 34694 ft 482 kts 70°
2026-05-07 19:54 58.27453 35.80951 34689 ft 483 kts 70°
2026-05-07 19:55 58.29458 35.93077 34690 ft 483 kts 70°
2026-05-07 19:55 58.31469 36.05260 34689 ft 483 kts 70°
2026-05-07 19:56 58.33469 36.17465 34693 ft 484 kts 70°
2026-05-07 19:56 58.35458 36.29725 34840 ft 484 kts 70°
2026-05-07 19:57 58.37419 36.41898 34934 ft 483 kts 70°
2026-05-07 19:57 58.38142 36.48127 34946 ft 486 kts 84°
2026-05-07 19:57 58.37893 36.54529 34968 ft 488 kts 103°
2026-05-07 19:58 58.36656 36.60527 34989 ft 488 kts 116°
2026-05-07 19:58 58.35103 36.66338 34984 ft 488 kts 118°
2026-05-07 19:58 58.31929 36.77750 34987 ft 488 kts 118°
2026-05-07 19:59 58.28775 36.89181 34987 ft 488 kts 118°
2026-05-07 19:59 58.25653 37.00571 34988 ft 488 kts 117°
2026-05-07 20:00 58.22509 37.12007 34989 ft 488 kts 117°
2026-05-07 20:00 58.19368 37.23407 34989 ft 485 kts 116°
2026-05-07 20:01 58.16256 37.34678 34988 ft 485 kts 116°
2026-05-07 20:01 58.13122 37.45969 34990 ft 485 kts 116°
2026-05-07 20:02 58.09993 37.57181 34987 ft 485 kts 116°
2026-05-07 20:02 58.06831 37.68450 34986 ft 485 kts 117°
2026-05-07 20:03 58.03676 37.79666 34987 ft 485 kts 117°
2026-05-07 20:03 58.00506 37.90858 34988 ft 485 kts 117°
2026-05-07 20:04 57.97329 38.02018 34988 ft 485 kts 117°
2026-05-07 20:04 57.94133 38.13193 34989 ft 486 kts 117°
2026-05-07 20:05 57.90925 38.24342 34987 ft 485 kts 117°
2026-05-07 20:05 57.87683 38.35502 34986 ft 485 kts 117°
2026-05-07 20:06 57.84440 38.46577 34988 ft 486 kts 117°
2026-05-07 20:06 57.81191 38.57672 34982 ft 486 kts 117°
2026-05-07 20:07 57.77948 38.68730 34965 ft 485 kts 118°
2026-05-07 20:07 57.74698 38.79788 34949 ft 485 kts 118°
2026-05-07 20:08 57.71443 38.90800 34940 ft 486 kts 117°
2026-05-07 20:08 57.68159 39.01824 34936 ft 486 kts 117°
2026-05-07 20:09 57.64868 39.12825 34935 ft 485 kts 116°
2026-05-07 20:10 57.59939 39.29253 34935 ft 485 kts 116°
2026-05-07 20:10 57.56637 39.40184 34934 ft 485 kts 116°
2026-05-07 20:11 57.53330 39.51078 34935 ft 485 kts 116°
2026-05-07 20:11 57.49995 39.62009 34936 ft 486 kts 116°
2026-05-07 20:12 57.46674 39.72857 34934 ft 485 kts 117°
2026-05-07 20:12 57.43331 39.83731 34934 ft 489 kts 117°
2026-05-07 20:13 57.39931 39.94718 34936 ft 491 kts 117°
2026-05-07 20:13 57.36528 40.05649 34934 ft 491 kts 117°
2026-05-07 20:14 57.32997 40.16473 34936 ft 493 kts 121°
2026-05-07 20:14 57.29157 40.26908 34935 ft 493 kts 122°
2026-05-07 20:15 57.25292 40.37317 34935 ft 494 kts 122°
2026-05-07 20:15 57.21395 40.47780 34935 ft 493 kts 122°
2026-05-07 20:16 57.17531 40.58118 34935 ft 494 kts 121°
2026-05-07 20:16 57.13633 40.68516 34935 ft 493 kts 122°
2026-05-07 20:17 57.09726 40.78908 34937 ft 493 kts 122°
2026-05-07 20:17 57.05833 40.89207 34935 ft 492 kts 122°
2026-05-07 20:18 57.01932 40.99464 34936 ft 492 kts 122°
2026-05-07 20:18 56.98033 41.09672 34935 ft 492 kts 122°
2026-05-07 20:19 56.94113 41.19902 34936 ft 492 kts 122°
2026-05-07 20:19 56.90182 41.30120 34934 ft 492 kts 122°
2026-05-07 20:20 56.86209 41.40333 34934 ft 492 kts 122°
2026-05-07 20:20 56.82251 41.50468 34936 ft 492 kts 122°
2026-05-07 20:21 56.78301 41.60578 34936 ft 492 kts 122°
2026-05-07 20:21 56.74331 41.70725 34935 ft 492 kts 123°
2026-05-07 20:22 56.70358 41.80857 34934 ft 492 kts 122°
2026-05-07 20:22 56.66401 41.90892 34924 ft 493 kts 123°
2026-05-07 20:23 56.62383 42.01031 34905 ft 493 kts 123°
2026-05-07 20:23 56.58398 42.11045 34890 ft 493 kts 123°
2026-05-07 20:24 56.54392 42.21065 34883 ft 493 kts 123°
2026-05-07 20:24 56.50373 42.31079 34880 ft 493 kts 123°
2026-05-07 20:25 56.46349 42.41065 34879 ft 493 kts 123°
2026-05-07 20:25 56.42310 42.51043 34880 ft 494 kts 123°